GW6525 Weather Reports


Display with metric or nautical units.
time (UTC)temp
F
wind
direction
speed
MPH
gust
MPH
rain 1hr
in
rain 24hr
in
rain mn
in
humidity
%
barometer
mb
20260507184503 74 262 5.0 12.0 0.00 0.00 0.00 63 1015.1
20260507181503 76 232 3.0 10.0 0.00 0.00 0.00 61 1015.3
20260507180005 74 190 4.0 9.0 0.00 0.00 0.00 64 1015.3
20260507173002 73 171 3.0 8.0 0.00 0.00 0.00 66 1015.5
20260507171502 72 236 4.0 9.0 0.00 0.00 0.00 67 1015.6
20260507170004 71 221 3.0 9.0 0.00 0.00 0.00 67 1015.6
20260507164502 70 323 3.0 7.0 0.00 0.00 0.00 69 1015.7
20260507163002 69 261 3.0 6.0 0.00 0.00 0.00 72 1015.7
20260507161502 69 171 3.0 5.0 0.00 0.00 0.00 71 1015.9
20260507154502 65 223 2.0 6.0 0.00 0.00 0.00 78 1016.0
20260507153001 64 113 2.0 4.0 0.00 0.00 0.00 80 1016.0
20260507151502 63 163 2.0 6.0 0.00 0.00 0.00 82 1016.0
20260507150002 61 190 2.0 6.0 0.00 0.00 0.00 86 1016.0
20260507144501 60 132 2.0 6.0 0.00 0.00 0.00 87 1016.0
20260507143002 59 121 2.0 5.0 0.00 0.00 0.00 89 1015.7
20260507141502 59 119 2.0 4.0 0.00 0.00 0.00 88 1015.7
20260507140002 58 111 2.0 6.0 0.00 0.00 0.00 88 1015.6
20260507134502 56 77 2.0 4.0 0.00 0.00 0.00 89 1015.4
20260507131502 55 67 2.0 3.0 0.00 0.00 0.00 91 1015.3
20260507130003 55 73 2.0 4.0 0.00 0.00 0.00 91 1015.1
20260507124501 55 78 1.0 3.0 0.00 0.00 0.00 91 1015.0
20260507123002 55 116 0.0 1.0 0.00 0.00 0.00 91 1015.0
20260507121502 56 84 2.0 4.0 0.00 0.00 0.00 90 1014.8
20260507120002 55 111 2.0 4.0 0.00 0.00 0.00 90 1014.8
20260507114502 55 77 2.0 3.0 0.00 0.00 0.00 90 1014.9
20260507113001 56 92 1.0 3.0 0.00 0.00 0.00 90 1015.0
20260507110000 56 92 2.0 4.0 0.00 0.00 0.00 90 1015.1
20260507104501 56 80 2.0 4.0 0.00 0.00 0.00 90 1015.2
20260507103000 56 74 2.0 4.0 0.00 0.00 0.00 90 1015.3
20260507101500 56 77 1.0 2.0 0.00 0.00 0.00 89 1015.4
20260507100002 57 101 1.0 2.0 0.00 0.00 0.00 89 1015.4
20260507094500 57 109 2.0 3.0 0.00 0.00 0.00 89 1015.5
20260507093001 57 81 2.0 3.0 0.00 0.00 0.00 89 1015.7
20260507091500 57 80 2.0 3.0 0.00 0.00 0.00 89 1015.7
20260507084500 57 78 2.0 3.0 0.00 0.00 0.00 87 1016.0
20260507083001 58 81 1.0 3.0 0.00 0.00 0.00 87 1016.0
20260507081500 58 96 1.0 3.0 0.00 0.00 0.00 87 1016.1
20260507080001 58 105 2.0 4.0 0.00 0.00 0.00 87 1016.2
20260507074500 58 84 2.0 4.0 0.00 0.00 0.00 86 1016.3
20260507073000 58 101 2.0 3.0 0.00 0.00 0.00 87 1016.5
20260507071501 59 82 1.0 2.0 0.00 0.00 0.00 86 1016.5
20260507064500 59 98 2.0 3.0 0.00 0.00 0.00 87 1016.5
20260507062959 59 131 1.0 3.0 0.00 0.00 0.00 86 1016.5
20260507060001 60 138 1.0 2.0 0.00 0.00 0.00 85 1016.6
20260507053000 60 169 1.0 2.0 0.00 0.00 0.00 84 1016.6
20260507051459 60 212 0.0 1.0 0.00 0.00 0.00 84 1016.5
20260507050004 60 230 1.0 3.0 0.00 0.00 0.00 84 1016.4
20260507043003 61 192 1.0 3.0 0.00 0.00 0.00 82 1016.5
20260507041503 61 207 2.0 3.0 0.00 0.00 0.00 83 1016.4
20260507040003 61 215 1.0 3.0 0.00 0.00 0.00 83 1016.3
20260507034503 61 262 1.0 3.0 0.00 0.00 0.00 83 1016.2
20260507033003 62 259 2.0 4.0 0.00 0.00 0.00 82 1016.1
20260507031504 62 259 2.0 5.0 0.00 0.00 0.00 81 1016.0
20260507030004 62 215 3.0 4.0 0.00 0.00 0.00 82 1015.9
20260507024503 63 186 3.0 5.0 0.00 0.00 0.00 80 1015.7
20260507023004 64 215 3.0 6.0 0.00 0.00 0.00 77 1015.6
20260507021504 65 225 4.0 6.0 0.00 0.00 0.00 74 1015.5
20260507020005 66 212 4.0 8.0 0.00 0.00 0.00 70 1015.3
20260507014503 67 259 5.0 9.0 0.00 0.00 0.00 67 1015.3
20260507013003 68 250 3.0 8.0 0.00 0.00 0.00 62 1015.3
20260507011503 69 222 3.0 8.0 0.00 0.00 0.00 61 1015.2
20260507010004 70 243 4.0 10.0 0.00 0.00 0.00 59 1015.1
20260507001503 71 231 5.0 10.0 0.00 0.00 0.00 60 1015.0
20260507000005 70 240 6.0 11.0 0.00 0.00 0.00 61 1014.8
20260506234502 71 216 5.0 10.0 0.00 0.00 0.00 61 1014.8
20260506233003 71 257 6.0 10.0 0.00 0.00 0.00 62 1014.8
20260506231504 72 265 5.0 12.0 0.00 0.00 0.00 60 1014.9
20260506230003 73 302 5.0 11.0 0.00 0.00 0.00 60 1015.0
20260506224502 72 272 7.0 12.0 0.00 0.00 0.00 60 1015.2
20260506223004 73 246 6.0 11.0 0.00 0.00 0.00 61 1015.3
20260506221504 73 282 6.0 10.0 0.00 0.00 0.00 60 1015.3
20260506220002 73 273 7.0 13.0 0.00 0.00 0.00 60 1015.5
20260506214502 74 215 6.0 11.0 0.00 0.00 0.00 59 1015.6
20260506213003 74 223 7.0 12.0 0.00 0.00 0.00 59 1015.8
20260506211502 73 249 8.0 15.0 0.00 0.00 0.00 59 1015.8
20260506204502 74 194 7.0 13.0 0.00 0.00 0.00 58 1016.0
20260506203002 74 260 5.0 10.0 0.00 0.00 0.00 57 1016.0
20260506201502 74 226 6.0 10.0 0.00 0.00 0.00 58 1016.2
20260506200001 73 251 6.0 11.0 0.00 0.00 0.00 59 1016.2
20260506194501 72 252 8.0 13.0 0.00 0.00 0.00 59 1016.5